Simultaneous Nadir Overpasses (SNOs) Predictions

Prediction of SNOs between METOP-A and NOAA-19 Satellite Orbit:

Table of predicted SNOs for the next 14.0 days since TLE Epoch: 11/10/2017
Index Date (METOP-A) Time (METOP-A) Lat,Lon (METOP-A) SZA (METOP-A ) Date (NOAA-19) Time (NOAA-19) Lat,Lon (NOAA-19) SZA (NOAA-19 ) Distance(km) Time Diff (sec)
1 11/17/2017 10:17:20 -77.85,-147.94 82.97 11/17/2017 10:16:08 -77.86,-148.03 82.97 2.53 72
2 11/17/2017 11:08:00 77.85, 19.39 97.05 11/17/2017 11:07:13 77.83, 19.39 97.02 2.33 47
3 11/17/2017 11:58:42 -77.83,-173.39 82.97 11/17/2017 11:58:09 -77.85,-173.45 82.96 2.61 33
4 11/17/2017 12:49:22 77.83, -6.05 97.04 11/17/2017 12:49:14 77.81, -6.03 97.03 1.77 8
5 11/17/2017 13:40:04 -77.81, 161.17 82.98 11/17/2017 13:40:10 -77.83, 161.13 82.96 2.94 6
6 11/17/2017 14:30:44 77.81, -31.49 97.03 11/17/2017 14:31:15 77.80, -31.45 97.03 1.51 31
7 11/17/2017 15:21:26 -77.79, 135.73 82.99 11/17/2017 15:22:11 -77.82, 135.71 82.95 3.43 45
8 11/17/2017 16:12:06 77.79, -56.94 97.03 11/17/2017 16:13:16 77.78, -56.87 97.03 1.68 70




NCC Satellite Simultaneous Nadir Overpasses (SNOs) Prediction Service
